This is the latest recevied weather packets stored in our database for station/object IZ1UQG-N2. If no packets are shown the sender has not sent any weather packets the latest 10 day(s).
| Time | Temp. | Humidity | Pressure | Rain* | Wind** | Luminosity | Snow |
|---|---|---|---|---|---|---|---|
| 1787599982 | 22.22° C | 84% | 1011.5 hPa | 3.56 mm | - | 0 W/m² | - |
| 1787599922 | 22.22° C | 84% | 1011.5 hPa | 3.56 mm | - | 0 W/m² | - |
| 1787599863 | 22.22° C | 84% | 1011.4 hPa | 3.56 mm | - | 0 W/m² | - |
| 1787599803 | 22.22° C | 83% | 1011.5 hPa | 3.56 mm | - | 0 W/m² | - |
| 1787599743 | 22.22° C | 83% | 1011.4 hPa | 3.3 mm | - | 0 W/m² | - |
| 1787599683 | 22.22° C | 83% | 1011.5 hPa | 3.3 mm | - | 0 W/m² | - |
| 1787599623 | 22.22° C | 83% | 1011.5 hPa | 3.3 mm | - | 0 W/m² | - |
| 1787599563 | 22.22° C | 83% | 1011.4 hPa | 3.3 mm | - | 0 W/m² | - |
| 1787599502 | 22.22° C | 82% | 1011.5 hPa | 3.05 mm | - | 0 W/m² | - |
| 1787599442 | 22.22° C | 82% | 1011.4 hPa | 3.05 mm | - | 0 W/m² | - |
| 1787599382 | 22.22° C | 81% | 1011.3 hPa | 3.05 mm | - | 0 W/m² | - |
| 1787599322 | 22.22° C | 81% | 1011.3 hPa | 3.05 mm | - | 0 W/m² | - |
| 1787599262 | 22.22° C | 80% | 1011.2 hPa | 2.79 mm | - | 0 W/m² | - |
| 1787599204 | 22.22° C | 80% | 1011.2 hPa | 2.79 mm | - | 0 W/m² | - |
| 1787599143 | 22.22° C | 79% | 1011.2 hPa | 2.79 mm | - | 0 W/m² | - |
| 1787599083 | 22.78° C | 79% | 1011.3 hPa | 2.79 mm | - | 0 W/m² | - |
| 1787599023 | 22.78° C | 79% | 1011.5 hPa | 2.79 mm | - | 0 W/m² | - |
| 1787598962 | 22.78° C | 78% | 1011.3 hPa | 2.79 mm | - | 0 W/m² | - |
| 1787598902 | 22.78° C | 77% | 1011.5 hPa | 2.79 mm | - | 0 W/m² | - |
| 1787598842 | 23.33° C | 76% | 1011.4 hPa | 2.54 mm | - | 0 W/m² | - |
| 1787598782 | 23.33° C | 76% | 1011.4 hPa | 2.54 mm | - | 0 W/m² | - |
| 1787598724 | 23.33° C | 76% | 1011.5 hPa | 2.29 mm | - | 0 W/m² | - |
| 1787598664 | 23.33° C | 76% | 1011.5 hPa | 2.03 mm | - | 0 W/m² | - |
| 1787598603 | 23.89° C | 76% | 1011.5 hPa | 1.78 mm | - | 0 W/m² | - |
| 1787598543 | 23.89° C | 74% | 1011.5 hPa | 1.02 mm | - | 0 W/m² | - |
* Rain latest hour (hover to see other rain measurements)
** Current wind speed in m/s (hover to see current wind gust speed)